Location: Besigheim
(48.9980°N, 9.1427°E)
Time: 17:24:33
(UTC+00:00)

SL-24 R/B - RUBIN 2 - Pass Details

Date: 16 February 2026
Orbit: 603 x 984 km, 64.6° (Epoch: 8 March)

Event Time Altitude Azimuth Distance (km) Brightness Sun altitude
Exits shadow 05:43:48 - 316° (NW) 2,472 6.2 -8.2°
Reaches altitude 10° 05:46:20 10° 342° (NNW) 1,993 5.9 -7.8°
Maximum altitude 05:47:30 11° 357° (N) 1,926 6.0 -7.6°
Drops below altitude 10° 05:48:38 10° 13° (NNE) 1,973 6.2 -7.5°
Sets 05:52:46 0° 51° (NE) 2,862 7.6 -6.8°
